Regional Weather Roundup
Issued by NWS

Home | Current Version | Previous Version | Text Only | Print | Product List | Glossary On
Versions: 1 2 3 4 5 6 7 8 9 10 11 12 13 14 15 16 17 18 19 20 21 22 23 24 25 26 27 28 29 30 31 32 33 34 35 36 37 38 39 40 41 42 43 44 45 46 47 48 49 50
000
ASUS44 KMEG 070610
RWRTN
TENNESSEE HOURLY STATE WEATHER ROUNDUP
NATIONAL WEATHER SERVICE MEMPHIS TN
100 AM CDT THU MAY 07 2015

TNZ002-004-019-021-049-052-054-088>092-070700-
WEST TENNESSEE

CITY           SKY/WX    TMP DP  RH WIND       PRES   REMARKS
MEMPHIS INTL   PTCLDY    71  53  52 SE7       30.04F
NWS MEMPHIS      N/A     64 N/A N/A MISG        N/A
JACKSON        CLEAR     59  53  80 CALM      30.07S
DYERSBURG      CLEAR     66  45  45 SE5       30.07F
PARIS          CLEAR     61  50  67 SE5       30.09S
LEXINGTON      CLEAR     55  52  88 CALM      30.08S
$$

TNZ008-025-027-028-033-062-065-066-070700-
NORTH MIDDLE TENNESSEE

CITY           SKY/WX    TMP DP  RH WIND       PRES   REMARKS
NASHVILLE      CLEAR     65  58  78 CALM      30.11S
CLARKSVILLE    CLEAR     59  58  96 SE3       30.09F
SMYRNA         CLEAR     59  57  92 CALM      30.12S
COOKEVILLE     PTCLDY    57  55  94 CALM      30.13S
CROSSVILLE     CLOUDY    65  53  65 CALM      30.16F HAZE
$$

TNZ061-075-076-078-094-096-097-070700-
SOUTH MIDDLE TENNESSEE

CITY           SKY/WX    TMP DP  RH WIND       PRES   REMARKS
FAYETTEVILLE     N/A     61  50  67 CALM      30.12S
TULLAHOMA      CLEAR     54  50  87 CALM      30.14S
WINCHESTER     CLEAR     57  54  88 CALM      30.13S
MCMINNVILLE    CLEAR     57  57 100 NE5       30.13S
COLUMBIA       CLEAR     55  55 100 CALM      30.10S
SHELBYVILLE    CLEAR     61  55  82 E5        30.12F
$$

TNZ017-018-042-046-047-070700-
NORTHEAST TENNESSEE

CITY           SKY/WX    TMP DP  RH WIND       PRES   REMARKS
TRI CITIES     PTCLDY    56  55  97 CALM      30.17S FOG
$$

TNZ012-013-036-069-073-074-070700-
CENTRAL EAST TENNESSEE

CITY           SKY/WX    TMP DP  RH WIND       PRES   REMARKS
KNOXVILLE      PTCLDY    68  57  68 SW6       30.11F
OAK RIDGE      PTCLDY    67  59  75 CALM      30.13F
GATLINBURG     PTCLDY    61  59  94 CALM      30.12F
MORRISTOWN       N/A     66  55  68 CALM      30.15S
$$

TNZ083-085-099-070700-
SOUTHEAST TENNESSEE

CITY           SKY/WX    TMP DP  RH WIND       PRES   REMARKS
CHATTANOOGA    CLEAR     63  57  81 CALM      30.12F
$$

SKY/WX REPORTED AS FAIR MEANS FEW OR NO CLOUDS BELOW
12 THOUSAND FEET.



USA.gov is the U.S. government's official web portal to all federal, state and local government web resources and services.